[[{"header":{"parameterUnit":"m.s-1","parameterCategory":1,"la1":30.2991,"la2":30.254,"lo1":-89.0895,"lo2":-89.0444,"dy":0.0017,"dx":0.0017,"nx":28,"ny":28,"refTime":"2023-07-31T03:00:00:Z","depth":0,"parameterNumber":2,"parameterNumberName":"U-component_of_WINDS"},"data":[0,0,0,0,0,0,0,0,0,0,0,0,0,0,0,0,0,0,0,0,0,0,0,0,0,0,0,0,0,0,0,0,0,0,0,0,0,0,0,0,0,0,0,0,0,0,0,0,0,0,0,0,0,0,0,0,0,0,-1.1564,-1.1562,0,-1.1437,-1.1435,-1.1434,-1.1326,-1.1325,-1.1323,-1.1322,-1.1191,-1.1189,-1.1187,0,0,0,0,0,0,0,0,0,0,0,0,0,-1.1715,-1.1713,-1.1564,-1.1562,-1.1561,-1.1437,-1.1435,-1.1433,-1.1326,-1.1325,-1.1323,-1.1322,-1.1192,-1.1189,-1.1187,0,0,0,0,0,0,0,0,0,0,0,0,0,-1.1625,-1.1712,-1.1564,-1.1492,-1.1485,-1.1437,-1.1435,-1.1433,-1.1326,-1.1325,-1.1323,-1.1321,-1.1193,-1.119,-1.1186,-1.12,0,0,-1.1175,-1.1174,0,0,0,0,0,0,0,0,-1.163,-1.1619,-1.1504,-1.1497,-1.1488,-1.1395,-1.144,-1.1355,-1.1327,-1.1386,-1.1322,-1.132,-1.1261,-1.1251,-1.1231,-1.1193,-1.1188,-1.1175,-1.1173,-1.1171,-1.117,0,0,0,0,0,0,0,-1.1636,-1.1624,-1.1513,-1.1503,-1.1493,-1.1467,-1.1452,-1.1423,-1.1335,-1.1381,-1.1373,-1.1359,-1.1256,-1.1235,-1.1228,-1.1186,-1.1175,-1.1172,-1.117,-1.1168,-1.1155,-1.1156,0,0,0,0,0,0,-1.1654,-1.163,-1.1517,-1.151,-1.1556,-1.1465,-1.1449,-1.1427,-1.1335,-1.1319,-1.1361,-1.1355,-1.1242,-1.1232,-1.1223,-1.1233,-1.1171,-1.1168,-1.1166,-1.1153,-1.1155,-1.1157,0,0,0,0,0,0,-1.1657,-1.1645,-1.1523,-1.1568,-1.155,-1.1465,-1.1441,-1.1425,-1.1404,-1.132,-1.1304,-1.1356,-1.124,-1.1228,-1.1207,-1.1227,-1.1166,-1.1163,-1.1151,-1.1153,-1.1156,-1.1255,0,0,0,0,0,0,-1.1662,-1.1647,-1.1651,-1.1569,-1.1548,-1.1509,-1.1442,-1.1424,-1.1399,-1.1389,-1.1311,-1.1296,-1.1238,-1.1213,-1.1203,-1.1221,-1.116,-1.1148,-1.1152,-1.1155,-1.1249,-1.1261,-1.127,0,0,0,0,0,-1.1668,-1.1683,-1.1651,-1.1638,-1.1551,-1.151,-1.1499,-1.1431,-1.1401,-1.1404,-1.135,-1.1299,-1.1227,-1.1211,-1.12,-1.1217,-1.1147,-1.1151,-1.1155,-1.1245,-1.1258,-1.127,0,0,0,0,0,0,-1.1769,-1.1671,-1.1635,-1.1623,-1.1576,-1.1492,-1.1494,-1.1448,-1.1408,-1.1401,-1.1319,-1.1302,-1.1291,-1.1251,-1.1236,-1.1226,-1.118,-1.1182,-1.1252,-1.1265,-1.1275,-1.1285,-1.1157,0,0,0,0,0,-1.179,-1.1765,-1.168,-1.1679,-1.1657,-1.158,-1.156,-1.1513,-1.146,-1.1439,-1.1383,-1.1335,-1.1301,-1.1281,-1.1245,-1.1243,-1.1225,-1.125,-1.126,-1.1269,-1.1272,-1.127,-1.128,-1.117,-1.117,-1.117,0,0,-1.1833,-1.1776,-1.1765,-1.1698,-1.1655,-1.1632,-1.1564,-1.1541,-1.1523,-1.1436,-1.1413,-1.1371,-1.1311,-1.13,-1.1293,-1.1267,-1.1299,-1.1274,-1.1282,-1.128,-1.1275,-1.1286,-1.1295,-1.1173,-1.1172,-1.1172,0,0,-1.19,-1.1854,-1.1848,-1.1808,-1.1745,-1.1694,-1.1693,-1.1616,-1.1585,-1.1561,-1.1496,-1.1473,-1.1417,-1.1377,-1.135,-1.1404,-1.1356,-1.1395,-1.1449,-1.1448,-1.1457,-1.1464,-1.1485,-1.1493,-1.1398,-1.1398,-1.1398,0,-1.1961,-1.1922,-1.1851,-1.1833,-1.1806,-1.1727,-1.1721,-1.1685,-1.1614,-1.1597,-1.157,-1.1499,-1.1453,-1.1433,-1.1446,-1.1426,-1.1423,-1.1403,-1.1462,-1.1468,-1.1474,-1.1493,-1.1501,-1.1403,-1.1403,-1.1402,-1.1402,0,-1.2002,-1.1976,-1.1979,-1.1914,-1.1887,-1.1875,-1.1803,-1.1784,-1.174,-1.1693,-1.167,-1.1612,-1.1565,-1.1556,-1.1512,-1.1531,-1.1517,-1.1477,-1.1429,-1.1491,-1.1507,-1.1514,-1.1411,-1.1409,-1.1407,-1.1406,0,0,-1.2127,-1.2024,-1.2026,-1.1996,-1.1922,-1.1901,-1.1887,-1.184,-1.1827,-1.1781,-1.1767,-1.1722,-1.1686,-1.1655,-1.1606,-1.1605,-1.1654,-1.1565,-1.1562,-1.1584,-1.1672,-1.1704,-1.1713,-1.1621,-1.1622,-1.1623,-1.1678,0,-1.2182,-1.2151,-1.2088,-1.2077,-1.2054,-1.1979,-1.1967,-1.192,-1.1876,-1.185,-1.1801,-1.1771,-1.1724,-1.1705,-1.1701,-1.1649,-1.167,-1.1644,-1.1608,-1.1608,-1.1626,-1.1721,-1.1753,-1.1808,-1.1683,-1.1684,-1.1685,0,-1.2242,-1.2202,-1.219,-1.2119,-1.2106,-1.2096,-1.205,-1.2026,-1.1972,-1.194,-1.1907,-1.1854,-1.1835,-1.1791,-1.1765,-1.1749,-1.1731,-1.1703,-1.1704,-1.1698,-1.1651,-1.1719,-1.1823,-1.1832,-1.1694,-1.1694,-1.1693,0,-1.2337,-1.2279,-1.2265,-1.2241,-1.2158,-1.2153,-1.2118,-1.2063,-1.204,-1.1999,-1.1984,-1.1942,-1.1919,-1.1888,-1.1825,-1.1799,-1.1807,-1.1757,-1.1781,-1.1782,-1.1785,-1.1786,-1.1889,-1.1773,-1.1773,-1.1773,-1.1773,0,-1.2405,-1.2401,-1.2306,-1.2297,-1.2291,-1.2218,-1.2214,-1.2172,-1.2124,-1.2106,-1.2039,-1.2024,-1.1941,-1.1917,-1.1868,-1.1855,-1.1845,-1.1819,-1.1806,-1.1825,-1.1829,-1.1813,-1.1808,-1.1775,-1.1775,-1.1774,-1.1774,0,-1.2509,-1.2445,-1.2425,-1.2348,-1.2329,-1.2328,-1.2262,-1.2252,-1.2204,-1.2183,-1.2174,-1.2099,-1.2067,-1.2002,-1.1951,-1.1918,-1.1917,-1.1894,-1.1936,-1.1928,-1.1955,-1.1954,-1.2052,-1.2061,-1.1939,-1.1941,-1.1942,0,-1.2557,-1.2552,-1.2476,-1.2459,-1.2427,-1.2401,-1.2378,-1.2307,-1.2286,-1.2226,-1.2223,-1.2186,-1.2152,-1.2105,-1.2047,-1.2009,-1.1984,-1.2021,-1.1978,-1.1998,-1.1986,-1.1987,-1.1987,-1.2031,-1.2033,-1.2034,-1.2035,0,-1.265,-1.2619,-1.2588,-1.2547,-1.2521,-1.2485,-1.2445,-1.2435,-1.2355,-1.2335,-1.2302,-1.2276,-1.2226,-1.2191,-1.2144,-1.2108,-1.2059,-1.2049,-1.2053,-1.2073,-1.2098,-1.2086,-1.1963,-1.2047,-1.2046,-1.2045,-1.2044,-1.2044,-1.2728,-1.2721,-1.2666,-1.2634,-1.2597,-1.2562,-1.2549,-1.25,-1.2472,-1.2425,-1.2385,-1.2357,-1.2305,-1.2238,-1.2206,-1.2182,-1.2158,-1.2163,-1.2164,-1.2167,-1.2175,-1.2101,-1.2174,-1.2173,-1.2173,-1.2172,-1.2172,0,-1.2818,-1.278,-1.2751,-1.2698,-1.2674,-1.263,-1.2584,-1.2567,-1.2542,-1.2498,-1.2467,-1.2431,-1.2397,-1.2337,-1.2298,-1.2291,-1.2267,-1.2283,-1.2283,-1.2276,-1.2199,-1.22,-1.2303,-1.2303,-1.2303,-1.2303,-1.2303,-1.2303,-1.2862,-1.2848,-1.2811,-1.2779,-1.274,-1.2712,-1.269,-1.2658,-1.2623,-1.2585,-1.2557,-1.2518,-1.2468,-1.2425,-1.2392,-1.2375,-1.2365,-1.2388,-1.2365,-1.2294,-1.2281,-1.227,-1.227,-1.2386,-1.2386,-1.2443,-1.2444,-1.2445]},{"header":{"parameterUnit":"m.s-1","parameterCategory":1,"la1":30.2991,"la2":30.254,"lo1":-89.0895,"lo2":-89.0444,"dy":0.0017,"dx":0.0017,"nx":28,"ny":28,"refTime":"2023-07-31T03:00:00:Z","depth":0,"parameterNumber":3,"parameterNumberName":"V-component_of_WINDS"},"data":[0,0,0,0,0,0,0,0,0,0,0,0,0,0,0,0,0,0,0,0,0,0,0,0,0,0,0,0,0,0,0,0,0,0,0,0,0,0,0,0,0,0,0,0,0,0,0,0,0,0,0,0,0,0,0,0,0,0,2.4789,2.4789,0,2.4799,2.4799,2.4799,2.4818,2.4819,2.4819,2.4819,2.4828,2.4828,2.4827,0,0,0,0,0,0,0,0,0,0,0,0,0,2.4788,2.4788,2.4789,2.4789,2.479,2.4799,2.4799,2.4799,2.4818,2.4819,2.4819,2.482,2.4828,2.4828,2.4827,0,0,0,0,0,0,0,0,0,0,0,0,0,2.4792,2.4788,2.4789,2.48,2.4802,2.4799,2.4799,2.4799,2.4818,2.4819,2.4819,2.482,2.4828,2.4828,2.4827,2.4814,0,0,2.4827,2.4827,0,0,0,0,0,0,0,0,2.4792,2.4792,2.4799,2.48,2.4801,2.4808,2.4801,2.4804,2.4818,2.4812,2.4819,2.482,2.4821,2.4821,2.4821,2.4815,2.4815,2.4827,2.4827,2.4827,2.4826,0,0,0,0,0,0,0,2.4791,2.4792,2.4793,2.4799,2.48,2.4805,2.4806,2.4802,2.4813,2.4812,2.4814,2.4815,2.4821,2.4822,2.4822,2.4815,2.4827,2.4827,2.4826,2.4826,2.4797,2.4796,0,0,0,0,0,0,2.479,2.4791,2.4793,2.4793,2.4798,2.4804,2.4806,2.4805,2.4813,2.4815,2.4814,2.4816,2.4822,2.4822,2.4822,2.4806,2.4827,2.4826,2.4826,2.4798,2.4797,2.4796,0,0,0,0,0,0,2.479,2.479,2.4792,2.4793,2.4793,2.4804,2.4803,2.4805,2.4805,2.4814,2.4816,2.4812,2.4822,2.4822,2.4816,2.4807,2.4826,2.4826,2.4798,2.4797,2.4796,2.4774,0,0,0,0,0,0,2.4789,2.4789,2.4785,2.4793,2.4793,2.4786,2.4802,2.4805,2.4805,2.4807,2.4813,2.4815,2.4823,2.4816,2.4816,2.4807,2.4826,2.4799,2.4798,2.4797,2.4776,2.4772,2.477,0,0,0,0,0,2.4789,2.4778,2.4784,2.4784,2.4787,2.4785,2.4786,2.4796,2.4804,2.4799,2.4805,2.4814,2.4808,2.4815,2.4815,2.4806,2.48,2.4798,2.4797,2.4777,2.4773,2.477,0,0,0,0,0,0,2.4768,2.4779,2.4786,2.4777,2.478,2.4789,2.4782,2.4791,2.4792,2.4793,2.4805,2.4807,2.4798,2.4802,2.4809,2.4793,2.4805,2.4804,2.479,2.4787,2.4784,2.4782,2.4826,0,0,0,0,0,2.4762,2.476,2.477,2.4761,2.4762,2.4772,2.4772,2.4779,2.4782,2.4784,2.4789,2.4792,2.4791,2.4789,2.4789,2.4777,2.4778,2.4771,2.4768,2.4765,2.4763,2.4756,2.4752,2.4791,2.4791,2.4791,0,0,2.475,2.4756,2.4754,2.4757,2.476,2.4757,2.4773,2.4769,2.4767,2.4783,2.4777,2.4781,2.4785,2.4776,2.4772,2.4778,2.4753,2.4763,2.4761,2.476,2.4754,2.475,2.4747,2.479,2.479,2.4791,0,0,2.4726,2.4731,2.4723,2.4727,2.4732,2.4738,2.4737,2.4744,2.4748,2.4742,2.4754,2.4751,2.4749,2.4751,2.4752,2.473,2.4738,2.4729,2.4713,2.4706,2.4703,2.47,2.469,2.4687,2.4727,2.4727,2.4727,0,2.471,2.4706,2.4718,2.4713,2.4714,2.473,2.4722,2.4724,2.4729,2.4728,2.4736,2.4733,2.4737,2.4728,2.4722,2.4723,2.4721,2.4727,2.4702,2.47,2.4697,2.4688,2.4685,2.4726,2.4726,2.4726,2.4727,0,2.4685,2.4683,2.4676,2.468,2.468,2.4674,2.4684,2.4683,2.4691,2.4697,2.4691,2.4696,2.4696,2.4695,2.4703,2.4687,2.4691,2.47,2.4713,2.4692,2.4684,2.4681,2.4724,2.4725,2.4725,2.4725,0,0,2.4646,2.4658,2.4655,2.4656,2.4664,2.4661,2.4656,2.4657,2.4655,2.4658,2.4653,2.4651,2.466,2.4661,2.4669,2.4663,2.4643,2.4673,2.4673,2.4666,2.4624,2.4615,2.4611,2.465,2.4649,2.4649,2.4623,0,2.4622,2.4613,2.4624,2.4612,2.4609,2.4625,2.462,2.4624,2.463,2.4628,2.4634,2.4632,2.4645,2.4645,2.4641,2.4646,2.4635,2.4649,2.4644,2.4643,2.464,2.4607,2.4597,2.4573,2.462,2.462,2.4619,0,2.4592,2.4594,2.4581,2.4589,2.4588,2.4584,2.4585,2.4584,2.4588,2.4593,2.4594,2.4604,2.4599,2.4613,2.4605,2.4615,2.4614,2.4616,2.4616,2.4614,2.4628,2.4602,2.4566,2.4561,2.4615,2.4615,2.4615,0,2.4562,2.4561,2.4554,2.4555,2.4565,2.4561,2.4565,2.457,2.457,2.4571,2.4571,2.4572,2.4572,2.4572,2.4582,2.4591,2.4572,2.4587,2.4575,2.4574,2.4568,2.4568,2.4528,2.4571,2.4571,2.4571,2.4571,0,2.4532,2.4524,2.454,2.4535,2.4526,2.454,2.453,2.4536,2.4541,2.4537,2.4551,2.4547,2.4562,2.4559,2.4567,2.4558,2.4559,2.4562,2.4563,2.4559,2.4558,2.4556,2.4557,2.457,2.4571,2.4571,2.4571,0,2.4496,2.4507,2.4499,2.451,2.4512,2.4504,2.4513,2.4509,2.4516,2.4511,2.4511,2.4522,2.452,2.453,2.453,2.4535,2.4522,2.4528,2.452,2.4521,2.4507,2.4507,2.4463,2.4457,2.4506,2.4505,2.4505,0,2.4475,2.4468,2.4478,2.4477,2.448,2.4478,2.4477,2.4491,2.449,2.4495,2.449,2.4489,2.4489,2.4485,2.4492,2.4492,2.4497,2.4482,2.4496,2.4492,2.4494,2.4493,2.4492,2.4477,2.4477,2.4476,2.4476,0,2.4436,2.4442,2.4441,2.4442,2.4442,2.4444,2.4446,2.4444,2.4459,2.4457,2.4455,2.4455,2.4455,2.4453,2.4455,2.4459,2.4469,2.4472,2.4468,2.4462,2.4457,2.4457,2.4509,2.4472,2.4472,2.4472,2.4473,2.4473,2.4405,2.44,2.4405,2.4404,2.4408,2.441,2.4406,2.4414,2.4413,2.4413,2.4422,2.4418,2.4423,2.4426,2.4429,2.4426,2.4433,2.4429,2.4427,2.4425,2.4421,2.446,2.4427,2.4427,2.4427,2.4427,2.4427,0,2.4364,2.4369,2.4368,2.4371,2.437,2.4382,2.4386,2.4384,2.438,2.4385,2.4384,2.4382,2.4381,2.4389,2.4389,2.4385,2.4389,2.4384,2.4383,2.4383,2.4416,2.4418,2.438,2.438,2.438,2.438,2.438,2.438,2.4343,2.4334,2.4341,2.4335,2.434,2.4336,2.4337,2.4339,2.4343,2.4339,2.4338,2.4345,2.435,2.4351,2.435,2.4352,2.435,2.4343,2.4346,2.4377,2.4381,2.4385,2.4387,2.4343,2.4343,2.4313,2.4313,2.4313]}]]